Regional Weather Roundup
Issued by NWS Burlington, VT

Home | Current Version | Previous Version | Text Only | Print | Product List | Glossary On
Versions: 1 2 3 4 5 6 7 8 9 10 11 12 13 14 15 16 17 18 19 20 21 22 23 24 25 26 27 28 29 30 31 32 33 34 35 36 37 38 39 40 41 42 43 44 45 46 47 48 49 50
830
ASUS41 KBTV 211710
RWRBTV
VERMONT REGIONAL WEATHER ROUNDUP
NATIONAL WEATHER SERVICE BURLINGTON VT
1200 PM EST THU NOV 21 2019

NOTE: "FAIR" INDICATES FEW OR NO CLOUDS BELOW 12,000 FEET WITH NO
SIGNIFICANT WEATHER AND/OR OBSTRUCTIONS TO VISIBILITY.

* THESE REPORTS ARE NOT UNDER NWS QUALITY CONTROL AND/OR DO NOT
  REPORT WEATHER SUCH AS PRECIPITATION AND FOG.

VTZ001>019-211800-
_____VERMONT_____


CITY           SKY/WX    TMP DP  RH WIND       PRES   REMARKS
BURLINGTON     PTSUNNY   36  29  75 CALM      30.16F
MONTPELIER     FAIR      33  27  78 E3        30.14F
MORRISVILLE    FAIR      35  27  72 N6        30.13F WCI  30
ST. JOHNSBURY*   N/A     35  27  72 MISG      30.11F
LYNDONVILLE*   CLOUDY    32  26  77 NW3       30.13F
MIDDLEBURY*    PTSUNNY   35  30  82 CALM      30.17S
RUTLAND*       CLOUDY    34  30  85 NW3       30.15S
SPRINGFIELD    FAIR      39  30  70 E5        30.12F
HIGHGATE*      FAIR      36  31  81 SE3       30.17S
NEWPORT*       PTSUNNY   32  26  80 CALM      30.12F
BENNINGTON     FAIR      36  29  75 SW3       30.16S
ISLAND POND*     N/A     30 N/A N/A NW6         N/A  WCI  24
GALLUP MILLS*    N/A     30 N/A N/A MISG        N/A
LAKE EDEN*       N/A     34 N/A N/A S3          N/A

_____LAKE CHAMPLAIN_____


CITY           SKY/WX    TMP DP  RH WIND       PRES   REMARKS

$$

NYZ007-026>031-035-052-083-087-211800-
_____NORTHERN NEW YORK_____


CITY           SKY/WX    TMP DP  RH WIND       PRES   REMARKS
PLATTSBURGH    CLOUDY    36  31  82 E3        30.16F
SARANAC LAKE   CLOUDY    31  27  85 SW5       30.08F WCI  26
MASSENA        CLOUDY    36  30  79 CALM      30.15F
OGDENSBURG*    CLOUDY    37  32  81 S5        30.11F
POTSDAM*       CLOUDY    37  30  75 CALM      30.13F
WATERTOWN      CLOUDY    41  32  70 S6        30.14F
FT DRUM        CLOUDY    45  32  61 S3        30.14F
ALBANY         FAIR      44  32  62 N3        30.18F
GLENS FALLS    FOG       33  30  88 CALM      30.17F VSB<1/4

$$
NHZ002-005-011-211800-
_____NEW HAMPSHIRE_____


CITY           SKY/WX    TMP DP  RH WIND       PRES   REMARKS
LEBANON        FAIR      39  28  64 VRB3      30.12F
KEENE          FAIR      41  29  62 NW8       30.11F
MT WASHINGTON  PTSUNNY   27  16  63 NW24        N/A  WCI  12
PLYMOUTH       FAIR      38  29  70 W13G23    30.10F WCI  30
WHITEFIELD     CLOUDY    33  28  81 NW3       30.11F

$$

_____REGIONAL QUEBEC LOCATIONS_____


CITY           SKY/WX    TMP DP  RH WIND       PRES   REMARKS
MONTREAL       MOSUNNY   36  27  69 S2        30.14F
QUEBEC CITY    PTSUNNY   34  30  86 SW6       30.12F WCI  29
SHERBROOKE     CLOUDY    32  28  86 SW7       30.10F WCI  26

_____REGIONAL ONTARIO LOCATIONS_____


CITY           SKY/WX    TMP DP  RH WIND       PRES   REMARKS
OTTAWA         CLOUDY    37  30  75 S6        30.11F

______KEY______
VSB  - VISIBILITY IN MILES
WCI  - WIND CHILL INDEX
HX   - HEAT INDEX
$$
NNNN




USA.gov is the U.S. government's official web portal to all federal, state and local government web resources and services.